Regional Weather Roundup
Issued by NWS

Home | Current Version | Previous Version | Text Only | Print | Product List | Glossary Off
Versions: 1 2 3 4 5 6 7 8 9 10 11 12 13 14 15 16 17 18 19 20 21 22 23 24 25 26 27 28 29 30 31 32 33 34 35 36 37 38 39 40 41 42 43 44 45 46 47 48 49 50

000
ASUS43 KMPX 051001
RWRMN
WEATHER ROUNDUP FOR MINNESOTA
NATIONAL WEATHER SERVICE TWIN CITIES/CHANHASSEN MN
500 AM CDT TUE MAY 05 2015


NOTE: "FAIR" INDICATES FEW OR NO CLOUDS BELOW 12,000 FEET WITH NO
SIGNIFICANT WEATHER AND/OR OBSTRUCTIONS TO VISIBILITY. N/A MEANS
CURRENT SKY AND/OR WEATHER CONDITIONS ARE NOT AVAILABLE.

MNZ060>063-068>070-051100-
   Twin Cities Metro

CITY           SKY/WX    TMP DP  RH WIND       PRES   REMARKS
TWIN CITIES    PTCLDY    53  28  38 NE6       30.18S
ST PAUL        PTCLDY    53  28  38 VRB3      30.19S
CRYSTAL        CLEAR     45  30  55 NE5       30.18S
BLAINE         CLEAR     46  32  57 CALM      30.19S
LAKEVILLE      PTCLDY    46  32  57 CALM      30.17S
EDEN PRAIRIE   PTCLDY    51  30  44 NE6       30.17S
SOUTH ST PAUL  PTCLDY    53  27  37 E5        30.18S
LAKE ELMO      FAIR      48  32  53 NE6       30.20S
$$
MNZ001>005-007-008-013>017-022>024-027-028-051100-
   Northwest Minnesota

CITY           SKY/WX    TMP DP  RH WIND       PRES   REMARKS
BEMIDJI        CLEAR     33  27  80 CALM      30.22F
HALLOCK        CLEAR     39  21  48 SE10      30.16S
ROSEAU         CLEAR     43  27  52 S7        30.19R
WARROAD        CLEAR     46  28  49 S7        30.19S
THIEF RVR FALL CLEAR     43  25  49 SE7       30.19F
CROOKSTON      CLEAR     39  28  65 SE9       30.19S
FOSSTON        CLEAR     43  25  49 SE3       30.20F
DETROIT LAKES  CLEAR     45  28  53 CALM      30.21S
MOORHEAD       CLEAR     46  30  53 SE3       30.18S
PARK RAPIDS    CLEAR     38  31  76 CALM      30.21F
MAHNOMEN       FAIR      47  28  45 SE8       30.19S
$$
MNZ006-009>011-018-025>026-051100-
   North Central Minnesota

CITY           SKY/WX    TMP DP  RH WIND       PRES   REMARKS
BAUDETTE       CLEAR     39  33  79 SE3       30.21S
FLAG ISLAND    CLEAR     50  37  62 S8        30.18S
INTL FALLS     CLEAR     29  25  85 CALM      30.23S
WASKISH        CLEAR     41  28  60 CALM      30.22S
BIG FORK       CLEAR     28  25  86 CALM      30.24F
LONGVILLE      CLEAR     30  30 100 CALM      30.23S
GRAND RAPIDS   CLEAR     34  25  69 CALM      30.24S
CRANE LAKE     CLEAR     27  27 100 CALM      30.28R
COOK           CLEAR     28  25  86 CALM      30.26S FOG
WALKER         FAIR      33  26  75 CALM      30.22F
$$
MNZ012-019>021-037-051100-
   Northeast Minnesota

CITY           SKY/WX    TMP DP  RH WIND       PRES   REMARKS
DULUTH         CLEAR     38  26  62 E3        30.25S
ELY            CLEAR     28  27  93 CALM      30.26S
HIBBING        CLEAR     28  23  81 NW3       30.25S
EVELETH        CLEAR     28  27  93 CALM      30.26F
DULUTH HARBOR  CLEAR     41  36  81 CALM      30.27S
TWO HARBORS    CLEAR     36  28  75 CALM      30.24S
SILVER BAY     CLEAR     30  27  86 CALM      30.25S
GRAND MARAIS     N/A     34  29  82 CALM      30.28R
G MARAIS ARPRT CLEAR     30  23  74 CALM      30.28S
$$
MNZ029>031-032-039>041-046>048-054>057-064-051100-
   West Central Minnesota

CITY           SKY/WX    TMP DP  RH WIND       PRES   REMARKS
FERGUS FALLS   CLEAR     46  28  49 E3        30.20S
WHEATON        CLEAR     37  27  65 SE7       30.19S
MORRIS         CLEAR     46  27  46 E10       30.17S
ALEXANDRIA     CLEAR     47  25  42 E8        30.20F
ELBOW LAKE     FAIR      50  32  49 E8        30.18S
WADENA         CLEAR     36  28  75 E3        30.21S
GLENWOOD       CLEAR     45  27  49 NE9       30.20S
APPLETON       CLEAR     43  30  61 E7        30.17S
BENSON         CLEAR     48  23  37 E6        30.17F
ORTONVILLE     CLEAR     46  28  49 E7        30.17R
MADISON        CLEAR     45  28  53 CALM      30.17S
WILLMAR        FAIR      52  27  37 E10       30.18F
$$
MNZ033>034-036-042>043-049>051-058-059-051100-
   Central Minnesota

CITY           SKY/WX    TMP DP  RH WIND       PRES   REMARKS
ST CLOUD       CLEAR     49  22  34 CALM      30.20S
SAUK CENTRE    FAIR      48  24  38 E8        30.20S
PAYNESVILLE    CLEAR     39  28  64 N3        30.20S
AITKIN         CLEAR     30  25  80 CALM      30.22S
PINE RIVER     CLEAR     28  27  93 CALM      30.25S
BRAINERD       CLEAR     36  33  89 CALM      30.23S
STAPLES        CLEAR     34  28  80 CALM      30.21S
LONG PRAIRIE   FAIR      39  30  70 CALM      30.21S
LITTLE FALLS   CLEAR     41  25  52 CALM      30.21S
LITCHFIELD     CLEAR     50  27  40 E3        30.19S
BUFFALO        CLEAR     48  27  44 NE8       30.20S
MAPLE LAKE     CLEAR     47  29  50 NE5       30.20S
$$
MNZ037-044-045-052-053-051100-
   East Central Minnesota

CITY           SKY/WX    TMP DP  RH WIND       PRES   REMARKS
PRINCETON      CLEAR     45  27  49 CALM      30.21S
MORA           CLEAR     34  28  80 CALM      30.24R
CAMBRIDGE      CLEAR     43  28  56 CALM      30.19F
RUSH CITY      CLEAR     44  27  51 NE3       30.22S
MOOSE LAKE     FAIR      36  28  75 CALM      30.23S
HINCKLEY       FAIR      32  30  93 CALM      30.23S
CLOQUET        CLEAR     30  23  74 CALM      30.24S
MCGREGOR       CLEAR     32  30  93 CALM      30.24S
$$
MNZ071>073-080-081-089-090-097-098-051100-
   Southwest Minnesota

CITY           SKY/WX    TMP DP  RH WIND       PRES   REMARKS
MONTEVIDEO     CLEAR     43  27  52 SE7       30.18S
GRANITE FALLS  CLEAR     45  27  50 NE6       30.18S
CANBY          CLEAR     37  30  77 W3        30.18S
MARSHALL       PTCLDY    41  21  45 CALM      30.16S
REDWOOD FALLS  CLEAR     51  25  36 NE7       30.16S
OLIVIA         CLEAR     45  23  42 E6        30.16S
PIPESTONE      PTCLDY    50  30  46 E7        30.14S
WINDOM         CLOUDY    54  32  43 NE7       30.14F
WORTHINGTON    CLOUDY    52  30  43 NE7       30.14S
JACKSON        CLOUDY    54  32  43 NE9       30.14S
TRACY          PTCLDY    48  30  50 E3        30.16S
SLAYTON        PTCLDY    49  30  48 CALM      30.16S
$$
MNZ065>067-074>077-082>085-091>093-051100-
   South Central Minnesota

CITY           SKY/WX    TMP DP  RH WIND       PRES   REMARKS
MANKATO        CLEAR     54  36  50 NE8       30.15S
NEW ULM        CLEAR     52  28  40 NE6       30.15F
ST JAMES       CLOUDY    52  34  50 N7        30.15F
FAIRMONT       CLOUDY    55  32  41 N9        30.12F
GLENCOE        CLEAR     47  32  54 CALM      30.17S
FARIBAULT      PTCLDY    46  37  71 N5        30.16S
OWATONNA       PTCLDY    52  32  46 E8        30.15S
WASECA         PTCLDY    52  36  54 NE10      30.15F
ALBERT LEA     CLOUDY    55  39  54 E5        30.13S
$$
MNZ078>079-086>088-094>096-051100-
   Southeast Minnesota

CITY           SKY/WX    TMP DP  RH WIND       PRES   REMARKS
ROCHESTER      CLOUDY    54  38  54 NE10      30.16S
RED WING       MOCLDY    52  34  50 E7        30.17S
STANTON        PTCLDY    44  36  72 NE7       30.15S
DODGE CENTER   CLOUDY    54  36  50 NE8       30.14F
WINONA         MOCLDY    50  46  87 CALM      30.17F
AUSTIN         CLOUDY    55  41  58 E6        30.13R
PRESTON        CLOUDY    55  40  57 E9        30.14F
$$
ABBREVIATIONS USED IN REMARKS
   TC - TEMPERATURES IN CELSIUS
  WCI - WIND CHILL INDEX
   HX - HEAT INDEX
  VSB - VISIBILITY
$$



USA.gov is the U.S. government's official web portal to all federal, state and local government web resources and services.